Regional Weather Roundup
Issued by NWS Spokane, WA

Home | Current Version | Previous Version | Text Only | Print | Product List | Glossary On
Versions: 1 2 3 4 5 6 7 8 9 10 11 12 13 14 15 16 17 18 19 20 21 22 23 24 25 26 27 28 29 30 31 32 33 34 35 36 37 38 39 40 41 42 43 44 45 46 47 48 49 50
000
NZUS01 KOTX 070505
RWROTX
EASTERN WASHINGTON/NORTHERN IDAHO ROUNDUP
NATIONAL WEATHER SERVICE, SPOKANE WA
1000 PM PDT WED MAY 06 2015

Note: "fair" indicated few or no clouds below 12,000 feet with no
significant weather and/or obstructions to visibility.

...NORTHEAST WASHINGTON AND NORTHERN IDAHO PANHANDLE...

CITY           SKY/WX    TMP DP  RH WIND       PRES   REMARKS
SPOKANE INTL   CLEAR     51  28  41 NW9       29.95R
SPOKANE DOWNTO PTCLDY    53  31  42 N9        29.96R
COEUR D ALENE  PTCLDY    45  27  49 CALM      29.96R
DEER PARK      CLEAR     40  31  70 NW7       29.97R
SANDPOINT      CLEAR     45  32  61 CALM      29.96R
BONNERS FERRY  FAIR      48  28  46 N10       29.96R

...SOUTHEAST WASHINGTON AND SOUTHERN IDAHO PANHANDLE...

CITY           SKY/WX    TMP DP  RH WIND       PRES   REMARKS
WALLA WALLA    CLOUDY    55  34  45 S20       29.99R
PULLMAN/MOSCOW CLOUDY    49  28  44 NW7       29.97R
LEWISTON       CLOUDY    57  27  31 SW7       29.93R
LOWELL           N/A     52  41  66 VRB3      29.97R

...COLUMBIA BASIN...

CITY           SKY/WX    TMP DP  RH WIND       PRES   REMARKS
EPHRATA        CLEAR     54  31  41 N16G25    29.99R
MOSES LAKE     CLEAR     48  31  51 NW9       30.00R
TRI CITIES     MOCLDY    57  33  40 W12       29.99R
HERMISTON      LGT RAIN  50  39  66 SW10G21   30.02R
PENDLETON      CLOUDY    47  38  71 S10       30.03R

...EAST SLOPES CASCADES...

CITY           SKY/WX    TMP DP  RH WIND       PRES   REMARKS
THE DALLES     PTCLDY    49  40  71 VRB5      30.07R
YAKIMA         CLEAR     54  35  48 N13       30.04R
ELLENSBURG     CLEAR     48  37  65 NW17      30.04R
WENATCHEE      CLEAR     52  36  54 NW10      30.04R
OMAK           CLEAR     54  27  35 N16G29    30.06R

...SOUTHERN BRITISH COLUMBIA...

CITY           SKY/WX    TMP DP  RH WIND       PRES   REMARKS

...WESTERN MONTANA...

CITY           SKY/WX    TMP DP  RH WIND       PRES   REMARKS
MISSOULA       LGT RAIN  52  25  35 VRB7G21   29.93R

...NEIGHBORING CITIES...

CITY           SKY/WX    TMP DP  RH WIND       PRES   REMARKS
SEATTLE        PTCLDY    54  39  57 N10       30.15R



USA.gov is the U.S. government's official web portal to all federal, state and local government web resources and services.